Villa Grove, CO

2:52 AM MDT on July 30, 2016 (GMT -0600)
Monarch Pass

Weather History for KMYP - March, 2013

Change the Weather History Date:

Sunday, March 3, 2013

  Actual Average (KGUC) Record (KGUC)
Temperature  
Mean Temperature 24 °F -  
Max Temperature 26 °F 32 °F 51 °F (1999)
Min Temperature 21 °F 9 °F -18 °F (2002)
Degree Days  
Heating Degree Days 42    
Moisture  
Dew Point 16 °F    
Average Humidity 76    
Maximum Humidity 93    
Minimum Humidity 59    
Precipitation  
Precipitation 0.00 in - - ()
Sea Level Pressure  
Sea Level Pressure 30.14 in    
Wind  
Wind Speed 40 mph (West)    
Max Wind Speed 54 mph    
Max Gust Speed 74 mph    
Averages and records for this station are not official NWS values.
T = Trace of Precipitation, MM = Missing Value Source: NWS Daily Summary

Daily Weather History Graph

Daily Weather History Graph

Search for Another Location

Airport or City:

Trip Planner

Search our weather history database for the weather conditions in past years. The results will help you decide how hot, cold, wet, or windy it might be!

Date:

Astronomy

Mar. 03, 2013 Rise Set
Actual Time 6:34 AM MST 6:00 PM MST
Civil Twilight 6:07 AM MST 6:27 PM MST
Nautical Twilight 5:36 AM MST 6:57 PM MST
Astronomical Twilight 5:06 AM MST 7:28 PM MST
Moon No Moon Rise 9:56 AM MST (3/3)
Length of Visible Light 12h 19m
Length of Day
11h 26m
Waning Gibbous, 63% of the Moon is Illuminated
Mar 3
Waning Gibbous
Mar 4
Last Quarter
Mar 11
New
Mar 19
First Quarter
Mar 27
Full

Hourly Weather History & Observations

Time (MST) Temp. Windchill Dew Point Humidity Pressure Visibility Wind Dir Wind Speed Gust Speed Precip Events Conditions
12:18 AM 21.2 °F 2.7 °F 12.2 °F 68% 30.38 in - WSW 31.1 mph 36.8 mph N/A   Clear
12:38 AM 21.2 °F 1.9 °F 14.0 °F 74% 30.37 in - WSW 34.5 mph 41.4 mph N/A   Clear
12:58 AM 21.2 °F 0.7 °F 14.0 °F 74% 30.35 in - WSW 40.3 mph - N/A   Clear
1:18 AM 21.2 °F 0.5 °F 14.0 °F 74% 30.34 in - West 41.4 mph 46.0 mph N/A   Clear
1:38 AM 21.2 °F 0.3 °F 14.0 °F 74% 30.32 in - West 42.6 mph - N/A   Clear
1:58 AM 21.2 °F 0.5 °F 14.0 °F 74% 30.32 in - West 41.4 mph - N/A   Clear
2:18 AM 23.0 °F 2.4 °F 12.2 °F 63% 30.30 in - West 44.9 mph 51.8 mph N/A   Clear
2:38 AM 23.0 °F 2.0 °F 12.2 °F 63% 30.28 in - West 47.2 mph 51.8 mph N/A   Clear
2:58 AM 23.0 °F 2.0 °F 12.2 °F 63% 30.27 in - West 47.2 mph 54.1 mph N/A   Clear
3:18 AM 21.2 °F 0.3 °F 12.2 °F 68% 30.27 in - West 42.6 mph 52.9 mph N/A   Clear
3:38 AM 21.2 °F -0.5 °F 12.2 °F 68% 30.25 in - West 47.2 mph - N/A   Clear
3:58 AM 21.2 °F -0.5 °F 12.2 °F 68% 30.23 in - West 47.2 mph 54.1 mph N/A   Clear
4:18 AM 21.2 °F -0.9 °F 12.2 °F 68% 30.23 in - West 49.5 mph - N/A   Clear
4:38 AM 21.2 °F -1.6 °F 12.2 °F 68% 30.21 in - West 54.1 mph 61.0 mph N/A Thunderstorm Thunderstorm
4:58 AM 21.2 °F - 12.2 °F 68% 30.21 in - North - - N/A Thunderstorm Clear
5:18 AM 21.2 °F -1.4 °F 12.2 °F 68% 30.20 in - West 52.9 mph 57.5 mph N/A Thunderstorm Thunderstorm
5:38 AM 21.2 °F - 12.2 °F 68% 30.19 in - North - - N/A Thunderstorm Thunderstorm
5:58 AM 21.2 °F - 12.2 °F 68% 30.19 in - North - - N/A   Clear
6:18 AM 21.2 °F - 12.2 °F 68% 30.18 in - North - - N/A   Clear
6:38 AM 21.2 °F - 10.4 °F 63% 30.18 in - North - - N/A   Clear
6:58 AM 23.0 °F 1.8 °F 12.2 °F 63% 30.17 in - West 48.3 mph 55.2 mph N/A   Clear
7:18 AM 21.2 °F -0.5 °F 12.2 °F 68% 30.17 in - West 47.2 mph 54.1 mph N/A   Clear
7:38 AM 23.0 °F 1.8 °F 12.2 °F 63% 30.18 in - West 48.3 mph 54.1 mph N/A   Clear
7:58 AM 23.0 °F 1.8 °F 12.2 °F 63% 30.17 in - West 48.3 mph - N/A   Clear
8:18 AM 23.0 °F 2.2 °F 12.2 °F 63% 30.18 in - West 46.0 mph 51.8 mph N/A   Clear
8:38 AM 24.8 °F 4.8 °F 14.0 °F 64% 30.18 in - West 46.0 mph 52.9 mph N/A   Clear
8:58 AM 24.8 °F 4.9 °F 14.0 °F 64% 30.18 in - West 44.9 mph 54.1 mph N/A   Clear
9:18 AM 26.6 °F 7.3 °F 14.0 °F 59% 30.17 in - West 46.0 mph 54.1 mph N/A   Clear
9:38 AM 26.6 °F 7.5 °F 15.8 °F 64% 30.18 in - West 44.9 mph 55.2 mph N/A   Clear
9:58 AM 26.6 °F 6.9 °F 15.8 °F 64% 30.18 in - West 48.3 mph 54.1 mph N/A   Clear
10:18 AM 26.6 °F 7.5 °F 15.8 °F 64% 30.18 in - West 44.9 mph 55.2 mph N/A   Scattered Clouds
10:38 AM 26.6 °F 6.9 °F 14.0 °F 59% 30.16 in - West 48.3 mph 56.4 mph N/A   Mostly Cloudy
10:58 AM 26.6 °F 7.3 °F 14.0 °F 59% 30.15 in - West 46.0 mph 57.5 mph N/A   Mostly Cloudy
11:18 AM 26.6 °F 6.6 °F 14.0 °F 59% 30.15 in - West 50.6 mph 58.7 mph N/A   Overcast
11:38 AM 26.6 °F 6.6 °F 14.0 °F 59% 30.14 in - West 50.6 mph 61.0 mph N/A   Overcast
11:58 AM 26.6 °F 6.4 °F 14.0 °F 59% 30.14 in - West 51.8 mph 63.3 mph N/A   Mostly Cloudy
12:18 PM 24.8 °F 3.9 °F 15.8 °F 69% 30.14 in - West 51.8 mph 73.6 mph N/A Thunderstorm Thunderstorm
12:38 PM 23.0 °F 1.7 °F 15.8 °F 74% 30.13 in - West 49.5 mph 61.0 mph N/A   Overcast
12:58 PM 23.0 °F - 17.6 °F 80% 30.11 in - North - - N/A   Overcast
1:18 PM 23.0 °F 2.8 °F 17.6 °F 80% 30.11 in - West 42.6 mph 54.1 mph N/A   Overcast
1:38 PM 23.0 °F 3.0 °F 17.6 °F 80% 30.10 in - West 41.4 mph 55.2 mph N/A   Overcast
1:58 PM 23.0 °F 4.6 °F 17.6 °F 80% 30.10 in - West 33.4 mph 50.6 mph N/A   Overcast
2:18 PM 23.0 °F 4.4 °F 17.6 °F 80% 30.09 in - West 34.5 mph 42.6 mph N/A   Overcast
2:38 PM 23.0 °F 3.4 °F 17.6 °F 80% 30.08 in - West 39.1 mph 43.7 mph N/A   Overcast
2:58 PM 23.0 °F 2.6 °F 17.6 °F 80% 30.08 in - West 43.7 mph 52.9 mph N/A   Overcast
3:18 PM 23.0 °F 2.8 °F 17.6 °F 80% 30.07 in - West 42.6 mph 50.6 mph N/A   Overcast
3:38 PM 23.0 °F - 15.8 °F 74% 30.08 in - North - - N/A   Overcast
3:58 PM 23.0 °F 3.7 °F 17.6 °F 80% 30.08 in - West 38.0 mph - N/A   Overcast
4:18 PM 23.0 °F 3.7 °F 15.8 °F 74% 30.07 in - West 38.0 mph 48.3 mph N/A   Overcast
4:38 PM 23.0 °F 3.2 °F 15.8 °F 74% 30.06 in - West 40.3 mph 49.5 mph N/A   Overcast
4:58 PM 23.0 °F 3.7 °F 17.6 °F 80% 30.07 in - West 38.0 mph 50.6 mph N/A   Overcast
5:38 PM 23.0 °F 5.7 °F 17.6 °F 80% 30.07 in - WSW 28.8 mph 36.8 mph N/A   Overcast
5:58 PM 21.2 °F - 19.4 °F 93% 30.06 in - North - - N/A   Overcast
6:18 PM 21.2 °F 4.2 °F 19.4 °F 93% 30.07 in - WSW 25.3 mph - N/A   Overcast
6:38 PM 21.2 °F 3.5 °F 19.4 °F 93% 30.07 in - WSW 27.6 mph - N/A   Overcast
6:58 PM 21.2 °F 3.0 °F 19.4 °F 93% 30.07 in - WSW 29.9 mph - N/A   Overcast
7:18 PM 21.2 °F 4.5 °F 19.4 °F 93% 30.08 in - WSW 24.2 mph - N/A   Overcast
7:38 PM 21.2 °F 2.7 °F 19.4 °F 93% 30.06 in - WSW 31.1 mph 41.4 mph N/A   Overcast
7:58 PM 21.2 °F 2.4 °F 19.4 °F 93% 30.06 in - West 32.2 mph 41.4 mph N/A   Overcast
8:18 PM 21.2 °F 3.3 °F 19.4 °F 93% 30.06 in - West 28.8 mph 44.9 mph N/A   Overcast
8:38 PM 21.2 °F - 19.4 °F 93% 30.05 in - North - - N/A   Overcast
8:58 PM 21.2 °F 6.4 °F 19.4 °F 93% 30.05 in - West 18.4 mph 32.2 mph N/A   Overcast
9:18 PM 21.2 °F 4.5 °F 19.4 °F 93% 30.04 in - West 24.2 mph 32.2 mph N/A   Overcast
9:38 PM 21.2 °F 5.6 °F 19.4 °F 93% 30.04 in - West 20.7 mph 31.1 mph N/A   Overcast
9:58 PM 21.2 °F 4.5 °F 19.4 °F 93% 30.03 in - WSW 24.2 mph 29.9 mph N/A   Overcast
10:18 PM 21.2 °F 4.2 °F 19.4 °F 93% 30.03 in - West 25.3 mph 34.5 mph N/A   Overcast
10:38 PM 21.2 °F 5.2 °F 19.4 °F 93% 30.02 in - West 21.9 mph 32.2 mph N/A   Overcast
10:58 PM 21.2 °F 3.9 °F 19.4 °F 93% 30.01 in - West 26.5 mph 38.0 mph N/A   Overcast
11:18 PM 21.2 °F 4.5 °F 19.4 °F 93% 30.00 in - WSW 24.2 mph 38.0 mph N/A   Overcast
11:38 PM 21.2 °F - 19.4 °F 93% 29.99 in - North - - N/A   Overcast
11:58 PM 21.2 °F - 19.4 °F 93% 29.98 in - North - - N/A   Overcast